Weather History for K9V9 - December, 2012

Change the Weather History Date:

Wednesday, December 19, 2012

  Actual Average Record
Temperature  
Mean Temperature 22 °F -  
Max Temperature 28 °F 29 °F 51 °F (2006)
Min Temperature 16 °F 10 °F -15 °F (1996)
Degree Days  
Heating Degree Days 43    
Moisture  
Dew Point 15 °F    
Average Humidity 68    
Maximum Humidity 77    
Minimum Humidity 61    
Precipitation  
Precipitation 0.00 in - - ()
Sea Level Pressure  
Sea Level Pressure 30.02 in    
Wind  
Wind Speed 8 mph (NW)    
Max Wind Speed 16 mph    
Max Gust Speed -    
Averages and records for this station are not official NWS values.
T = Trace of Precipitation, MM = Missing Value Source: NWS Daily Summary

Daily Weather History Graph

Daily Weather History Graph

Search for Another Location

Airport or City:

Trip Planner

Search our weather history database for the weather conditions in past years. The results will help you decide how hot, cold, wet, or windy it might be!

Date:

Astronomy

Dec. 19, 2012 Rise Set
Actual Time 8:07 AM CST 5:02 PM CST
Civil Twilight 7:34 AM CST 5:35 PM CST
Nautical Twilight 6:57 AM CST 6:11 PM CST
Astronomical Twilight 6:22 AM CST 6:46 PM CST
Moon 12:04 PM CST (12/19) No Moon Set
Length of Visible Light 10h 00m
Length of Day
8h 55m
Waxing Crescent, 45% of the Moon is Illuminated
Dec 19
Waxing Crescent
Dec 19
First Quarter
Dec 28
Full
Jan 4
Last Quarter
Jan 11
New

Hourly Weather History & Observations

Time (CST) Temp. Windchill Dew Point Humidity Pressure Visibility Wind Dir Wind Speed Gust Speed Precip Events Conditions
12:52 AM 25.0 °F 16.3 °F 14.0 °F 63% 29.88 in - West 8.1 mph - N/A   Unknown
1:52 AM 21.9 °F 17.2 °F 12.0 °F 66% 29.89 in - West 3.5 mph - N/A   Unknown
2:52 AM 24.1 °F 17.0 °F 14.0 °F 65% 29.89 in - West 5.8 mph - N/A   Unknown
3:52 AM 25.0 °F 17.1 °F 15.1 °F 66% 29.90 in - West 6.9 mph - N/A   Unknown
4:52 AM 21.9 °F 14.5 °F 15.1 °F 75% 29.93 in - SW 5.8 mph - N/A   Unknown
5:52 AM 24.1 °F 17.0 °F 16.0 °F 71% 29.93 in - West 5.8 mph - N/A   Unknown
6:52 AM 26.1 °F 17.6 °F 16.0 °F 66% 29.94 in - WNW 8.1 mph - N/A   Unknown
7:52 AM 25.0 °F 17.1 °F 16.0 °F 69% 29.96 in - WNW 6.9 mph - N/A   Unknown
8:52 AM 27.0 °F - 16.0 °F 63% 29.96 in - North - - N/A   Unknown
9:52 AM 28.0 °F 18.6 °F 16.0 °F 61% 29.98 in - NNW 10.4 mph - N/A   Unknown
10:52 AM 28.9 °F 19.8 °F 17.1 °F 61% 30.01 in - NW 10.4 mph - N/A   Unknown
11:52 AM 28.9 °F 19.8 °F 18.0 °F 64% 30.04 in - NW 10.4 mph - N/A   Unknown
12:52 PM 28.9 °F 20.4 °F 17.1 °F 61% 30.03 in - NW 9.2 mph - N/A   Unknown
1:52 PM 28.9 °F 18.6 °F 17.1 °F 61% 30.03 in - NNW 12.7 mph - N/A   Unknown
2:52 PM 28.0 °F 20.0 °F 17.1 °F 63% 30.04 in - NW 8.1 mph - N/A   Unknown
3:52 PM 26.1 °F 15.0 °F 16.0 °F 66% 30.05 in - NNW 12.7 mph - N/A   Unknown
4:52 PM 24.1 °F 13.1 °F 16.0 °F 71% 30.09 in - NW 11.5 mph - N/A   Unknown
5:52 PM 24.1 °F 13.7 °F 15.1 °F 69% 30.11 in - NNW 10.4 mph - N/A   Unknown
6:52 PM 23.0 °F 12.4 °F 15.1 °F 72% 30.12 in - NNW 10.4 mph - N/A   Unknown
7:52 PM 21.9 °F 9.8 °F 14.0 °F 72% 30.13 in - North 12.7 mph - N/A   Unknown
8:52 PM 21.0 °F 8.6 °F 12.9 °F 71% 30.12 in - North 12.7 mph - N/A   Unknown
9:52 PM 19.0 °F 4.5 °F 10.9 °F 71% 30.12 in - NNW 16.1 mph - N/A   Unknown
10:52 PM 16.0 °F 7.4 °F 10.0 °F 77% 30.14 in - WNW 5.8 mph - N/A   Unknown
11:52 PM 16.0 °F 4.4 °F 10.0 °F 77% 30.16 in - North 9.2 mph - N/A   Unknown